Regional Weather Roundup
Issued by NWS

Home | Current Version | Previous Version | Text Only | Print | Product List | Glossary On
Versions: 1 2 3 4 5 6 7 8 9 10 11 12 13 14 15 16 17 18 19 20 21 22 23 24 25 26 27 28 29 30 31 32 33 34 35 36 37 38 39 40 41 42 43 44 45 46 47 48 49 50
000
ASUS43 KDMX 011303
RWRIA

WEATHER ROUNDUP FOR IOWA
NATIONAL WEATHER SERVICE DES MOINES IA
800 AM CDT SUN MAY 01 2016

NOTE: "FAIR" INDICATES FEW OR NO CLOUDS BELOW 12,000 FEET WITH NO
SIGNIFICANT WEATHER AND/OR OBSTRUCTIONS TO VISIBILITY.

* - THESE STATIONS ARE NOT NWS STATIONS...THUS NOT UNDER NWS
QUALITY CONTROL.  THEY ALSO DO NOT REPORT WEATHER SUCH
AS PRECIPITATION OR FOG.

IAZ001>003-012>014-020>022-031>034-043>046-011400-
   NORTHWEST IOWA

CITY           SKY/WX    TMP DP  RH WIND       PRES   REMARKS
CARROLL *      CLOUDY    43  43 100 NE18      30.01R
CHEROKEE *     DRIZZLE   42  42 100 NE12G18   30.07R
DENISON *      CLOUDY    43  41  93 NE17      30.00R
LE MARS *      LGT RAIN  43  41  93 NE14      30.10R
ORANGE CITY *  LGT RAIN  43  41  93 NE9G16    30.09R
SHELDON *      MIX PCPN  41  41 100 NE18      30.09R
SIOUX CITY     LGT RAIN  45  41  86 NE14G23   30.07R FOG
SPENCER        CLOUDY    42  38  85 NE20      30.09R
STORM LAKE *   MIX PCPN  41  41 100 NE22G29   30.05R
$$

IAZ055>058-069>071-079>083-090>094-011400-
   SOUTHWEST IOWA

CITY           SKY/WX    TMP DP  RH WIND       PRES   REMARKS
ATLANTIC *     CLOUDY    45  43  93 NE10G17   29.99R
AUDUBON *      CLOUDY    43  41  93 NE13      30.00R
CLARINDA *       N/A    N/A N/A N/A MISG        N/A
COUNCIL BLFS * MIX PCPN  45  45 100 NE9       29.99R
CRESTON *      RAIN      45  45 100 NE16      29.96R
HARLAN  *      MIX PCPN  45  43  93 NE13G20   30.03R
LAMONI         FOG       45  45 100 NE10      29.93R VSB 3/4
RED OAK *      CLOUDY    45  45 100 NE16      29.98R
SHENANDOAH *   CLOUDY    46  46 100 NE12G18   29.97R
$$

IAZ047>049-059>061-072>074-084-011400-
   CENTRAL IOWA

CITY           SKY/WX    TMP DP  RH WIND       PRES   REMARKS
AMES           LGT RAIN  44  42  93 NE13G21   30.00R
ANKENY *       CLOUDY    45  45 100 NE9G17    29.99R
BOONE *        CLOUDY    43  43 100 NE18      29.99S FOG
CHARITON *     CLOUDY    45  45 100 NE10      29.96R FOG
DES MOINES     CLOUDY    46  42  86 E13       29.99R
GRINNELL*      CLOUDY    45  43  93 NE12      29.99R FOG
KNOXVILLE *    CLOUDY    45  45 100 NE9G15    29.96R FOG
MARSHALLTOWN   CLOUDY    44  41  89 NE15      30.00R
NEWTON *       CLOUDY    45  45 100 NE15      29.98R FOG
PELLA *        CLOUDY    45  44  97 E6        29.99R FOG
$$

IAZ004>006-015-016-023>025-035-036-011400-
   NORTH CENTRAL IOWA

CITY           SKY/WX    TMP DP  RH WIND       PRES   REMARKS
ALGONA *       DRIZZLE   43  43 100 NE15      30.07R
CLARION *      CLOUDY    43  41  93 NE20      30.04R
ESTHERVILLE    CLOUDY    40  38  93 N15       30.10R WCI  32
FORT DODGE *   CLOUDY    43  37  81 NE13      30.04R
MASON CITY     CLOUDY    43  40  89 NE16      30.07R
FOREST CITY *  CLOUDY    43  41  93 NE14      30.06S
WEBSTER CITY * MIX PCPN  43  43 100 NE16G24   30.01R
IOWA FALLS *   CLOUDY    43  41  93 NE13G21   30.03R
$$

IAZ007>011-017>019-026>030-037>042-050>054-066-011400-
   NORTHEAST IOWA

CITY           SKY/WX    TMP DP  RH WIND       PRES   REMARKS
CEDAR RAPIDS   CLOUDY    45  45 100 NE18      29.97R
CHARLES CITY * CLOUDY    45  41  87 NE18      30.04S
CLINTON *      CLOUDY    46  45  96 NE12      30.00R
DECORAH *      MIX PCPN  43  41  93 NE12G17   30.05R
DUBUQUE        CLOUDY    42  41  96 NE14      30.01R FOG
MONTICELLO *   CLOUDY    45  43  93 NE8G14    30.00R
OELWEIN *      CLOUDY    45  43  93 NE17G23   30.02R
WATERLOO       CLOUDY    44  40  85 NE17G25   30.02R
$$

IAZ064-065-067-068-078-011400-
   EAST CENTRAL IOWA

CITY           SKY/WX    TMP DP  RH WIND       PRES   REMARKS
DAVENPORT      CLOUDY    46  44  93 NE16G23   29.98R FOG
IOWA CITY      CLOUDY    46  44  93 NE9       29.99R
MT. PLEASANT * FOG       48  48 100 NE12      29.96S VSB 1
MUSCATINE *    CLOUDY    48  46  93 NE14      29.98R FOG
QUAD CITIES    CLOUDY    48  45  89 NE12      29.97R FOG
$$

IAZ062-063-075>077-085>089-095>099-011400-
   SOUTHEAST IOWA

CITY           SKY/WX    TMP DP  RH WIND       PRES   REMARKS
BURLINGTON     FOG       47  47 100 NE9       29.95R VSB 1/2
FAIRFIELD *    FOG       46  46 100 NE7       29.96S VSB 3/4
FORT MADISON * FOG       46  46 100 NE5       29.96R VSB 1/2
KEOKUK *       FOG       48  48 100 NE6       29.95R VSB 1/4
OSKALOOSA *    FOG       45  45 100 NE9       29.98R VSB 1
OTTUMWA        CLOUDY    45  45 100 NE12      29.96R FOG
WASHINGTON *   CLOUDY    46  46 100 NE13      29.98R FOG
$$

ABBREVIATIONS USED IN REMARKS
   TC - TEMPERATURES IN CELSIUS
  WCI - WIND CHILL INDEX
   HX - HEAT INDEX
  VSB - VISIBILITY
$$





USA.gov is the U.S. government's official web portal to all federal, state and local government web resources and services.